STARLINK-31510, 59575

Orbit data source: Space-Track

STARLINK-31510, 59575 is a payload satellite owned by SpaceX/Seattle (US) in LEO that was launched on Tue, 23 Apr 2024 UTC via an FALCON 9 launch vehicle from the Air Force Eastern Test Range (AFETR). Payload-class satellites include a variety of spacecraft equipped with specific instruments for various scientific and technological missions. These include communications satellites like Starlink; space stations such as the ISS; scientific satellites like the Hubble; Earth observation satellites from companies like Planet Labs, Umbra, and HawkEye 360; GPS; miniature CubeSats for education and research; and military/defense satellites.

Loading next visibility...
Identifier
59575, 2024-076M
Orbit
LEO
Last TLE update
8 hours ago
Origin
Manufacturer
SpaceX/Seattle
Mission
Operational spacecraft
Bus & Motor
STARLINK V2M, Unknown motor
Mass
730 kg wet, ~700 kg dry
Launch date (UTC)
2024-04-23 (1 year ago)
Launch vehicle
FALCON 9
Launch site
Air Force Eastern Test Range (AFETR)
Object type
Payload
Rocket body
Debris
Shape & HBR
Unknown
Radar Cross Section
Large (>1 m²)

Expand to show TLE details & history

TLE from 8 hours ago
0 STARLINK-31510
1 59575U 24076M   25128.87216504  .00009061  00000-0  32979-3 0  9990
2 59575  43.0008 287.0999 0002346 263.5056  96.5529 15.28428365 59929
Epoch: 2025-05-08T20:55Z
Definitive object data (Epoch: 2025-05-08T20:55:55.059Z)
Latitude
-0.00001°
Longitude
106.18404°
Altitude
480.469 km
Speed
7.627 km/s
True Right ascension
19h 08m 23s
True Declination
0° 00' 00"
Sunlit
Object was in full shadow at TLE epoch
Visualization TLE readout
Latitude
23.02768°
Longitude
131.25368°
Altitude
481.139 km
Speed
7.628 km/s
Apparent Right ascension
22h 38m 23s
Apparent Declination
-8° 21' 38"
Sunlit
Object is in daylight
Visualization observer readout
Local Sidereal Time
13:04:06
Azimuth
55.804° ENE
Elevation
-44.735°
Doppler factor
1
Orbital elements
Apogee altitude
484.065 km
Perigee altitude
480.846 km
Semi-major axis
6,860.593 km
Eccentricity
0.0002346
Inclination
43.0008°
RAAN
287.0999°
Arg. of periapsis
263.5056°
True anomaly
96.57961°
Mean anomaly
96.5529°
Eccentric anomaly
96.56625°
Mean motion
3.81945 °/min
BSTAR
0.00032979
Orbital period
94.25 mins
Loading maneuver chart data...
Loading SW <> Apogee altitude chart data...
Loading historical data...
Loading historical data...
Loading historical data...
Loading historical data...
Loading historical data...
Loading historical data...
Loading historical data...

STARLINK-31510 Visibility forecast

Observer location: undefined°, undefined°

Span
Click to sort rows by Start time (UTC) header in descending order
Start Az.
Max El. time (UTC)
Max El. Az.
Max El.
End time (UTC)
End Az.
6 mins2025-05-09 14:25:31.786Z235.298° WSW2025-05-09 14:28:31.786Z112.006° ESE40.046°2025-05-09 14:31:31.786Z75.301° E
6 mins2025-05-09 16:04:31.786Z280.996° WNW2025-05-09 16:06:31.786Z322.114° NNW37.242°2025-05-09 16:10:31.786Z72.366° E
6 mins2025-05-09 17:43:31.786Z292.395° WNW2025-05-09 17:46:31.786Z47.503° ENE41.025°2025-05-09 17:49:31.786Z94.28° ESE
5 mins2025-05-09 19:22:31.786Z271.298° WNW2025-05-09 19:24:31.786Z228.372° WSW31.485°2025-05-09 19:27:31.786Z145.313° SSE
|